[[{"header":{"parameterUnit":"m.s-1","parameterCategory":1,"la1":30.2991,"la2":30.254,"lo1":-89.0895,"lo2":-89.0444,"dy":0.0017,"dx":0.0017,"nx":28,"ny":28,"refTime":"2025-07-21T09:00:00:Z","depth":0,"parameterNumber":2,"parameterNumberName":"U-component_of_WINDS"},"data":[0,0,0,0,0,0,0,0,0,0,0,0,0,0,0,0,0,0,0,0,0,0,0,0,0,0,0,0,0,0,0,0,0,0,0,0,0,0,0,0,0,0,0,0,0,0,0,0,0,0,0,0,0,0,0,0,0,0,3.6656,3.6657,0,3.6783,3.6784,3.6786,3.6739,3.6736,3.6733,3.673,3.6861,3.6867,3.6873,0,0,0,0,0,0,0,0,0,0,0,0,0,3.6372,3.6378,3.6656,3.6657,3.6659,3.6782,3.6784,3.6786,3.6739,3.6736,3.6732,3.6729,3.6859,3.6866,3.6874,0,0,0,0,0,0,0,0,0,0,0,0,0,3.6497,3.638,3.6655,3.665,3.6651,3.6782,3.6784,3.6786,3.674,3.6736,3.6731,3.6727,3.6857,3.6866,3.6875,3.7018,0,0,3.6903,3.6907,0,0,0,0,0,0,0,0,3.649,3.6507,3.6649,3.6651,3.6652,3.674,3.6732,3.6864,3.6741,3.6706,3.673,3.6725,3.6825,3.6836,3.687,3.7025,3.703,3.6904,3.691,3.6914,3.6916,0,0,0,0,0,0,0,3.6481,3.6502,3.6706,3.6652,3.6653,3.6642,3.6655,3.6757,3.6788,3.6709,3.6706,3.6722,3.6824,3.6861,3.6872,3.7032,3.6904,3.6912,3.6918,3.6921,3.7309,3.7314,0,0,0,0,0,0,3.6472,3.6495,3.6702,3.671,3.6559,3.665,3.6665,3.6716,3.6787,3.6793,3.6725,3.6719,3.6847,3.6862,3.6877,3.7048,3.6913,3.6922,3.6927,3.7304,3.731,3.7315,0,0,0,0,0,0,3.6466,3.6491,3.6697,3.6601,3.6627,3.666,3.6718,3.6721,3.6757,3.6799,3.6804,3.6756,3.6844,3.6864,3.6983,3.7052,3.6926,3.6935,3.7299,3.7306,3.7313,3.7392,0,0,0,0,0,0,3.6458,3.6489,3.6544,3.6603,3.6632,3.6801,3.6722,3.6727,3.6773,3.6766,3.683,3.6836,3.6842,3.6969,3.6992,3.7062,3.6942,3.7293,3.7302,3.7311,3.7383,3.7401,3.7416,0,0,0,0,0,3.6448,3.6562,3.6547,3.6572,3.6701,3.6805,3.6822,3.6826,3.6779,3.6834,3.6861,3.6834,3.7041,3.6982,3.7007,3.7081,3.7288,3.73,3.731,3.7376,3.7397,3.7415,0,0,0,0,0,0,3.6511,3.657,3.6554,3.669,3.6743,3.6797,3.6867,3.6849,3.6917,3.6907,3.691,3.6925,3.7047,3.7076,3.701,3.7223,3.7157,3.7174,3.7199,3.722,3.7236,3.7225,3.695,0,0,0,0,0,3.654,3.662,3.6667,3.6782,3.681,3.6834,3.6879,3.6878,3.6933,3.6955,3.6991,3.7045,3.7122,3.7173,3.7246,3.7388,3.74,3.7451,3.7467,3.748,3.7494,3.7569,3.7591,3.7351,3.735,3.735,0,0,3.6602,3.6644,3.6694,3.6796,3.6837,3.6918,3.6853,3.6943,3.7003,3.6969,3.7083,3.7111,3.7172,3.7303,3.7362,3.733,3.7563,3.7494,3.7504,3.751,3.7582,3.7605,3.7625,3.7358,3.7356,3.7355,0,0,3.6756,3.6797,3.6896,3.6939,3.7001,3.7016,3.704,3.7097,3.7114,3.7229,3.7205,3.7277,3.741,3.7453,3.7493,3.7663,3.764,3.7687,3.7772,3.7845,3.7864,3.788,3.7939,3.7961,3.7701,3.7701,3.7701,0,3.6825,3.6947,3.695,3.7041,3.7086,3.7059,3.7159,3.72,3.7284,3.7315,3.7279,3.7444,3.7483,3.7622,3.7664,3.7698,3.7724,3.7679,3.7861,3.7878,3.7893,3.7949,3.7972,3.7706,3.7705,3.7705,3.7704,0,3.7028,3.7113,3.7186,3.7266,3.732,3.7415,3.7432,3.7486,3.748,3.7499,3.7615,3.7662,3.7743,3.7776,3.7772,3.7915,3.7893,3.7859,3.7793,3.7921,3.7974,3.7996,3.7713,3.7712,3.771,3.7709,0,0,3.7224,3.7305,3.7331,3.7367,3.7433,3.7499,3.7593,3.7672,3.7717,3.7776,3.7854,3.7966,3.7935,3.798,3.798,3.8045,3.8174,3.8003,3.8004,3.8031,3.8332,3.8356,3.8381,3.816,3.8164,3.8167,3.8327,0,3.7382,3.7547,3.7552,3.7702,3.7779,3.7754,3.7836,3.7886,3.7906,3.7975,3.7997,3.8076,3.8029,3.8056,3.8119,3.8145,3.8234,3.8134,3.8231,3.8235,3.8215,3.8409,3.8435,3.8583,3.8347,3.8351,3.8354,0,3.7588,3.7652,3.781,3.7864,3.7897,3.797,3.8042,3.8109,3.8164,3.8174,3.8224,3.8215,3.831,3.8242,3.8373,3.8304,3.8345,3.8364,3.8369,3.8377,3.8301,3.842,3.863,3.8652,3.8386,3.8384,3.8381,0,3.7713,3.7839,3.7949,3.7981,3.8047,3.8099,3.8129,3.818,3.8227,3.829,3.832,3.8394,3.8434,3.8491,3.8502,3.8452,3.8632,3.8566,3.8642,3.8642,3.868,3.8677,3.8898,3.8709,3.8709,3.8709,3.8708,0,3.7888,3.7985,3.8006,3.8074,3.8181,3.8186,3.8293,3.8319,3.8364,3.8436,3.842,3.8487,3.8498,3.8568,3.8577,3.8683,3.8702,3.8712,3.8713,3.8712,3.8711,3.8737,3.8727,3.8714,3.8713,3.8712,3.8711,0,3.8045,3.8063,3.8181,3.8235,3.825,3.8327,3.8372,3.8436,3.8455,3.8546,3.8567,3.8596,3.8678,3.8694,3.8791,3.8797,3.8922,3.8914,3.8903,3.8902,3.8977,3.8969,3.9221,3.9253,3.9045,3.9047,3.9049,0,3.8155,3.8228,3.8289,3.8336,3.8368,3.8444,3.8491,3.8499,3.8549,3.8617,3.8673,3.8752,3.8816,3.8948,3.8977,3.9051,3.9043,3.9126,3.9054,3.905,3.9042,3.9036,3.9043,3.9139,3.9142,3.9143,3.9145,0,3.8346,3.8351,3.842,3.8492,3.8549,3.8606,3.866,3.8699,3.8714,3.8771,3.8854,3.8903,3.9001,3.908,3.9154,3.9184,3.9167,3.9168,3.9189,3.9188,3.9178,3.9183,3.8939,3.9161,3.916,3.9159,3.9158,3.9157,3.8482,3.8545,3.8598,3.8674,3.8716,3.8767,3.8829,3.8855,3.8924,3.9004,3.9005,3.9095,3.9147,3.9244,3.9279,3.9349,3.9323,3.9354,3.9362,3.9369,3.9375,3.9169,3.9363,3.9363,3.9362,3.9362,3.9362,0,3.867,3.8703,3.8773,3.8849,3.8909,3.8888,3.8947,3.8998,3.9078,3.9128,3.9191,3.9286,3.9362,3.9397,3.9472,3.9521,3.9515,3.9541,3.9536,3.9543,3.9395,3.9368,3.9544,3.9544,3.9544,3.9544,3.9544,3.9544,3.8776,3.8882,3.8893,3.9019,3.9051,3.9139,3.9174,3.922,3.926,3.9366,3.9429,3.9452,3.9496,3.9574,3.9642,3.9651,3.9678,3.9707,3.9712,3.9572,3.9554,3.9536,3.9511,3.9713,3.9714,3.9853,3.9854,3.9855]},{"header":{"parameterUnit":"m.s-1","parameterCategory":1,"la1":30.2991,"la2":30.254,"lo1":-89.0895,"lo2":-89.0444,"dy":0.0017,"dx":0.0017,"nx":28,"ny":28,"refTime":"2025-07-21T09:00:00:Z","depth":0,"parameterNumber":3,"parameterNumberName":"V-component_of_WINDS"},"data":[0,0,0,0,0,0,0,0,0,0,0,0,0,0,0,0,0,0,0,0,0,0,0,0,0,0,0,0,0,0,0,0,0,0,0,0,0,0,0,0,0,0,0,0,0,0,0,0,0,0,0,0,0,0,0,0,0,0,4.2953,4.2955,0,4.307,4.3071,4.3073,4.3035,4.3032,4.303,4.3027,4.314,4.3146,4.3151,0,0,0,0,0,0,0,0,0,0,0,0,0,4.2691,4.2696,4.2953,4.2955,4.2956,4.307,4.3071,4.3073,4.3035,4.3032,4.3029,4.3026,4.3139,4.3145,4.3151,0,0,0,0,0,0,0,0,0,0,0,0,0,4.2806,4.2698,4.2953,4.2951,4.2952,4.3069,4.3071,4.3073,4.3036,4.3032,4.3028,4.3025,4.3137,4.3144,4.3152,4.3276,0,0,4.3177,4.318,0,0,0,0,0,0,0,0,4.28,4.2816,4.295,4.2952,4.2953,4.3034,4.302,4.3141,4.3037,4.3004,4.3027,4.3023,4.3108,4.3118,4.3148,4.3281,4.3286,4.3177,4.3182,4.3186,4.3188,0,0,0,0,0,0,0,4.2792,4.281,4.2999,4.2952,4.2954,4.2942,4.2955,4.3043,4.3075,4.3006,4.3004,4.3019,4.3108,4.314,4.315,4.3288,4.3177,4.3184,4.3189,4.3192,4.3528,4.3532,0,0,0,0,0,0,4.2784,4.2804,4.2996,4.3003,4.2866,4.295,4.2964,4.3012,4.3074,4.308,4.3022,4.3017,4.3128,4.3141,4.3154,4.3302,4.3186,4.3193,4.3198,4.3524,4.3529,4.3533,0,0,0,0,0,0,4.2778,4.2801,4.2991,4.2903,4.2926,4.2959,4.3013,4.3016,4.3048,4.3086,4.309,4.305,4.3126,4.3143,4.3246,4.3306,4.3197,4.3204,4.3519,4.3525,4.3531,4.3601,0,0,0,0,0,0,4.2771,4.28,4.2849,4.2904,4.2931,4.3084,4.3017,4.3021,4.3063,4.3057,4.3113,4.3118,4.3124,4.3234,4.3254,4.3315,4.321,4.3513,4.3521,4.3529,4.3593,4.3609,4.3622,0,0,0,0,0,4.2762,4.2863,4.2851,4.2875,4.2994,4.3087,4.3102,4.3109,4.3068,4.3117,4.314,4.3117,4.3296,4.3245,4.3267,4.3331,4.351,4.3519,4.3528,4.3587,4.3606,4.3621,0,0,0,0,0,0,4.2811,4.287,4.2858,4.2981,4.3029,4.3081,4.3142,4.3128,4.3188,4.318,4.3183,4.3196,4.3302,4.3327,4.3269,4.3454,4.3397,4.3411,4.3434,4.3452,4.3466,4.3457,4.3217,0,0,0,0,0,4.2837,4.291,4.2956,4.306,4.3085,4.311,4.3151,4.3151,4.3201,4.3221,4.3252,4.33,4.3366,4.341,4.3474,4.3597,4.3607,4.3651,4.3665,4.3677,4.3689,4.3754,4.3774,4.3563,4.3563,4.3563,0,0,4.2889,4.293,4.2976,4.3071,4.3109,4.3182,4.3127,4.3208,4.3262,4.3232,4.3333,4.3357,4.341,4.3524,4.3575,4.3547,4.3749,4.3689,4.3698,4.3703,4.3766,4.3785,4.3803,4.357,4.3569,4.3568,0,0,4.3023,4.3062,4.3152,4.3192,4.3251,4.3266,4.3288,4.3342,4.3357,4.3458,4.3438,4.3501,4.3616,4.3655,4.3689,4.3837,4.3817,4.3857,4.3931,4.3995,4.4012,4.4026,4.4078,4.4097,4.3869,4.3869,4.3869,0,4.308,4.3193,4.32,4.3283,4.3324,4.3303,4.3393,4.343,4.3506,4.3533,4.3502,4.3646,4.368,4.3802,4.3838,4.3867,4.389,4.3851,4.4009,4.4024,4.4038,4.4087,4.4106,4.3874,4.3873,4.3873,4.3872,0,4.326,4.3338,4.3403,4.348,4.3528,4.3614,4.3632,4.368,4.3676,4.3694,4.3796,4.3836,4.3907,4.3936,4.3932,4.4057,4.4038,4.4008,4.3951,4.4062,4.4108,4.4127,4.388,4.3879,4.3877,4.3876,0,0,4.3428,4.3507,4.3531,4.3565,4.3628,4.3687,4.3771,4.3843,4.3883,4.3936,4.4005,4.4103,4.4075,4.4115,4.4115,4.4171,4.4284,4.4134,4.4135,4.416,4.4422,4.4444,4.4466,4.4271,4.4275,4.4278,4.4417,0,4.3566,4.3717,4.3725,4.386,4.3931,4.3912,4.3985,4.403,4.4049,4.411,4.413,4.4199,4.4158,4.4182,4.4236,4.4259,4.4337,4.4249,4.4333,4.4336,4.4321,4.449,4.4514,4.4644,4.4436,4.4439,4.4441,0,4.3748,4.3809,4.3952,4.4004,4.4034,4.41,4.4166,4.4226,4.4275,4.4285,4.4329,4.4321,4.4405,4.4345,4.4459,4.4399,4.4433,4.445,4.4455,4.4462,4.4395,4.4502,4.4686,4.4705,4.447,4.4467,4.4465,0,4.3856,4.3972,4.4073,4.4103,4.4167,4.4213,4.4241,4.4288,4.433,4.4387,4.4414,4.4478,4.4514,4.4563,4.4572,4.4528,4.4685,4.4627,4.4694,4.4694,4.4728,4.4725,4.4919,4.4751,4.4751,4.4751,4.475,0,4.4009,4.4097,4.4122,4.4184,4.4281,4.4289,4.4384,4.4409,4.445,4.4515,4.4501,4.4561,4.457,4.4631,4.4638,4.4731,4.4747,4.4755,4.4756,4.4756,4.4755,4.4779,4.477,4.4756,4.4755,4.4754,4.4753,0,4.4145,4.4166,4.4274,4.4326,4.4341,4.4411,4.4454,4.4512,4.4529,4.4611,4.463,4.4657,4.4729,4.4743,4.4827,4.4831,4.4941,4.4933,4.4925,4.4924,4.4991,4.4984,4.5206,4.5235,4.5049,4.5051,4.5052,0,4.4242,4.4309,4.4369,4.4413,4.4444,4.4514,4.4557,4.4566,4.4612,4.4674,4.4724,4.4794,4.4852,4.4967,4.4992,4.5056,4.5049,4.5122,4.5058,4.5056,4.5049,4.5044,4.505,4.5134,4.5136,4.5138,4.5139,0,4.4411,4.4417,4.4482,4.455,4.4603,4.4657,4.4707,4.4743,4.4758,4.4809,4.4884,4.4929,4.5015,4.5085,4.5149,4.5175,4.5159,4.5159,4.5178,4.5179,4.5171,4.5175,4.4958,4.5154,4.5152,4.5151,4.515,4.515,4.4529,4.4588,4.464,4.4712,4.4751,4.4799,4.4856,4.4881,4.4944,4.5017,4.5018,4.5099,4.5145,4.523,4.526,4.5322,4.5298,4.5326,4.5333,4.5339,4.5345,4.5162,4.5334,4.5333,4.5333,4.5332,4.5332,0,4.4696,4.4729,4.4795,4.4868,4.4924,4.4906,4.4961,4.5008,4.5081,4.5127,4.5184,4.5268,4.5336,4.5367,4.5433,4.5476,4.547,4.5493,4.5489,4.5495,4.5363,4.534,4.5496,4.5496,4.5496,4.5496,4.5496,4.5496,4.479,4.4889,4.4902,4.5019,4.505,4.5131,4.5164,4.5207,4.5243,4.534,4.5396,4.5417,4.5456,4.5525,4.5585,4.5592,4.5616,4.5642,4.5646,4.5521,4.5505,4.5489,4.5467,4.5648,4.5648,4.5773,4.5774,4.5775]}]]